| time (UTC) | temp F | wind direction | speed knots | gust knots | rain 1hr in | rain 24hr in | rain mn in | humidity % | barometer mb |
| 20260506150848 | 52 | 268 | 13.0 | 20.0 | 0.00 | 0.00 | 0.00 | 45 | 1014.6 |
| 20260506145737 | 52 | 261 | 12.2 | 17.4 | 0.00 | 0.00 | 0.00 | 46 | 1015.0 |
| 20260506145047 | 51 | 266 | 12.2 | 16.5 | 0.00 | 0.00 | 0.00 | 46 | 1014.9 |
| 20260506144150 | 50 | 268 | 12.2 | 20.0 | 0.00 | 0.00 | 0.00 | 47 | 1015.0 |
| 20260506143037 | 50 | 263 | 12.2 | 16.5 | 0.00 | 0.00 | 0.00 | 47 | 1015.0 |
| 20260506142137 | 50 | 268 | 12.2 | 17.4 | 0.00 | 0.00 | 0.00 | 48 | 1015.0 |
| 20260506141447 | 49 | 266 | 13.0 | 17.4 | 0.00 | 0.00 | 0.00 | 50 | 1014.9 |
| 20260506140337 | 49 | 267 | 12.2 | 19.1 | 0.00 | 0.00 | 0.00 | 50 | 1014.9 |
| 20260506135647 | 48 | 260 | 11.3 | 19.1 | 0.00 | 0.00 | 0.00 | 52 | 1014.7 |
| 20260506134537 | 48 | 251 | 13.0 | 19.1 | 0.00 | 0.00 | 0.00 | 56 | 1014.6 |
| 20260506133637 | 47 | 247 | 12.2 | 18.2 | 0.00 | 0.00 | 0.00 | 58 | 1014.6 |
| 20260506132737 | 46 | 232 | 8.7 | 14.8 | 0.00 | 0.00 | 0.00 | 65 | 1014.5 |
| 20260506131837 | 44 | 214 | 7.8 | 10.4 | 0.00 | 0.00 | 0.00 | 69 | 1014.6 |
| 20260506131148 | 43 | 213 | 7.8 | 10.4 | 0.00 | 0.00 | 0.00 | 71 | 1014.6 |
| 20260506130037 | 41 | 224 | 7.0 | 10.4 | 0.00 | 0.00 | 0.00 | 72 | 1014.7 |
| 20260506125137 | 40 | 226 | 7.8 | 10.4 | 0.00 | 0.00 | 0.00 | 74 | 1014.6 |
| 20260506124450 | 39 | 225 | 7.0 | 9.6 | 0.00 | 0.00 | 0.00 | 74 | 1014.4 |
| 20260506123337 | 39 | 228 | 7.0 | 11.3 | 0.00 | 0.00 | 0.00 | 75 | 1014.4 |
| 20260506122650 | 39 | 232 | 7.0 | 9.6 | 0.00 | 0.00 | 0.00 | 77 | 1014.2 |
| 20260506121537 | 38 | 253 | 6.1 | 7.8 | 0.00 | 0.00 | 0.00 | 75 | 1014.3 |
| 20260506120637 | 39 | 263 | 5.2 | 7.8 | 0.00 | 0.00 | 0.00 | 75 | 1014.2 |
| 20260506115737 | 38 | 261 | 5.2 | 7.0 | 0.00 | 0.00 | 0.00 | 76 | 1014.2 |
| 20260506114837 | 38 | 251 | 5.2 | 7.0 | 0.00 | 0.00 | 0.00 | 74 | 1014.1 |
| 20260506113937 | 39 | 254 | 6.1 | 7.8 | 0.00 | 0.00 | 0.00 | 72 | 1014.0 |
| 20260506113037 | 41 | 265 | 5.2 | 8.7 | 0.00 | 0.00 | 0.00 | 70 | 1013.9 |
| 20260506112137 | 42 | 268 | 6.1 | 9.6 | 0.00 | 0.00 | 0.00 | 70 | 1013.9 |
| 20260506111237 | 41 | 257 | 6.1 | 9.6 | 0.00 | 0.00 | 0.00 | 70 | 1013.9 |
| 20260506110546 | 41 | 265 | 6.1 | 9.6 | 0.00 | 0.00 | 0.00 | 71 | 1013.8 |
| 20260506105437 | 40 | 276 | 5.2 | 7.8 | 0.00 | 0.00 | 0.00 | 74 | 1013.7 |
| 20260506104537 | 40 | 270 | 3.5 | 5.2 | 0.00 | 0.00 | 0.00 | 73 | 1013.7 |
| 20260506103637 | 41 | 267 | 4.3 | 7.0 | 0.00 | 0.00 | 0.00 | 70 | 1013.6 |
| 20260506102737 | 42 | 278 | 5.2 | 8.7 | 0.00 | 0.00 | 0.00 | 72 | 1013.6 |
| 20260506101837 | 40 | 284 | 3.5 | 6.1 | 0.00 | 0.00 | 0.00 | 73 | 1013.6 |
| 20260506100937 | 40 | 249 | 2.6 | 4.3 | 0.00 | 0.00 | 0.00 | 75 | 1013.7 |
| 20260506100037 | 40 | 241 | 3.5 | 4.3 | 0.00 | 0.00 | 0.00 | 74 | 1013.5 |
| 20260506095137 | 41 | 242 | 4.3 | 7.0 | 0.00 | 0.00 | 0.00 | 73 | 1013.5 |
| 20260506094237 | 42 | 254 | 5.2 | 7.0 | 0.00 | 0.00 | 0.00 | 72 | 1013.5 |
| 20260506093337 | 42 | 260 | 4.3 | 7.0 | 0.00 | 0.00 | 0.00 | 72 | 1013.3 |
| 20260506092437 | 42 | 270 | 5.2 | 7.8 | 0.00 | 0.00 | 0.00 | 73 | 1013.3 |
| 20260506091537 | 42 | 278 | 5.2 | 7.0 | 0.00 | 0.00 | 0.00 | 74 | 1013.3 |
| 20260506090637 | 43 | 272 | 5.2 | 7.0 | 0.00 | 0.00 | 0.00 | 74 | 1013.1 |
| 20260506085046 | 43 | 275 | 5.2 | 7.0 | 0.00 | 0.00 | 0.00 | 73 | 1013.2 |
| 20260506083935 | 44 | 279 | 6.1 | 7.0 | 0.00 | 0.00 | 0.00 | 72 | 1013.2 |
| 20260506083035 | 44 | 281 | 6.1 | 7.8 | 0.00 | 0.00 | 0.00 | 73 | 1013.1 |
| 20260506082135 | 44 | 291 | 7.0 | 7.8 | 0.00 | 0.00 | 0.00 | 73 | 1013.0 |
| 20260506081235 | 45 | 288 | 7.0 | 9.6 | 0.00 | 0.00 | 0.00 | 71 | 1013.0 |
| 20260506080548 | 46 | 290 | 7.8 | 14.8 | 0.00 | 0.00 | 0.00 | 71 | 1013.1 |
| 20260506072735 | 44 | 300 | 3.5 | 6.1 | 0.00 | 0.00 | 0.00 | 81 | 1013.1 |
| 20260506071835 | 44 | 310 | 3.5 | 7.0 | 0.00 | 0.00 | 0.00 | 81 | 1013.1 |
| 20260506070935 | 44 | 326 | 1.7 | 3.5 | 0.00 | 0.00 | 0.00 | 83 | 1013.2 |
| 20260506062435 | 45 | 19 | 5.2 | 7.0 | 0.00 | 0.00 | 0.00 | 81 | 1013.1 |
| 20260506061535 | 46 | 18 | 5.2 | 9.6 | 0.00 | 0.00 | 0.00 | 80 | 1013.1 |
| 20260506060848 | 46 | 13 | 5.2 | 9.6 | 0.00 | 0.00 | 0.00 | 80 | 1013.1 |
| 20260506051235 | 47 | 337 | 5.2 | 10.4 | 0.00 | 0.00 | 0.00 | 78 | 1013.0 |
| 20260506050545 | 47 | 340 | 7.0 | 11.3 | 0.00 | 0.00 | 0.00 | 78 | 1012.9 |
| 20260506044535 | 49 | 308 | 9.6 | 13.0 | 0.00 | 0.00 | 0.00 | 68 | 1012.6 |
| 20260506043635 | 50 | 308 | 9.6 | 13.9 | 0.00 | 0.00 | 0.00 | 69 | 1012.6 |
| 20260506042735 | 51 | 301 | 7.0 | 11.3 | 0.00 | 0.00 | 0.00 | 66 | 1012.8 |
| 20260506041835 | 50 | 298 | 7.0 | 12.2 | 0.00 | 0.00 | 0.00 | 65 | 1012.4 |
| 20260506040935 | 50 | 232 | 4.3 | 6.1 | 0.00 | 0.00 | 0.00 | 64 | 1012.0 |
| 20260506040036 | 50 | 220 | 4.3 | 7.0 | 0.00 | 0.00 | 0.00 | 65 | 1012.0 |
| 20260506035135 | 49 | 200 | 6.1 | 8.7 | 0.00 | 0.00 | 0.00 | 65 | 1011.7 |
| 20260506034446 | 49 | 219 | 4.3 | 7.0 | 0.00 | 0.00 | 0.00 | 63 | 1011.5 |
| 20260506033548 | 50 | 298 | 0.0 | 2.6 | 0.00 | 0.00 | 0.00 | 60 | 1011.3 |
| 20260506032435 | 51 | 298 | 0.9 | 3.5 | 0.00 | 0.00 | 0.00 | 60 | 1011.4 |
| 20260506031748 | 51 | 298 | 0.0 | 3.5 | 0.00 | 0.00 | 0.00 | 60 | 1011.2 |
| 20260506030635 | 52 | 278 | 0.9 | 3.5 | 0.00 | 0.00 | 0.00 | 59 | 1011.2 |
| 20260506025735 | 52 | 247 | 1.7 | 2.6 | 0.00 | 0.00 | 0.00 | 59 | 1011.3 |
| 20260506024835 | 52 | 247 | 2.6 | 4.3 | 0.00 | 0.00 | 0.00 | 58 | 1011.1 |
| 20260506024147 | 53 | 243 | 4.3 | 6.1 | 0.00 | 0.00 | 0.00 | 57 | 1011.0 |
| 20260506023038 | 54 | 244 | 5.2 | 12.2 | 0.00 | 0.00 | 0.00 | 56 | 1010.9 |
| 20260506022135 | 53 | 220 | 7.0 | 12.2 | 0.00 | 0.00 | 0.00 | 58 | 1011.0 |
| 20260506021235 | 53 | 289 | 5.2 | 8.7 | 0.00 | 0.00 | 0.00 | 57 | 1010.7 |
| 20260506020546 | 53 | 304 | 7.0 | 9.6 | 0.00 | 0.00 | 0.00 | 57 | 1010.4 |
| 20260506015435 | 53 | 309 | 7.0 | 9.6 | 0.00 | 0.00 | 0.00 | 55 | 1010.0 |
| 20260506014536 | 54 | 302 | 7.0 | 9.6 | 0.00 | 0.00 | 0.00 | 53 | 1009.7 |
| 20260506013635 | 56 | 305 | 7.0 | 11.3 | 0.00 | 0.00 | 0.00 | 51 | 1009.3 |
| 20260506012736 | 57 | 295 | 8.7 | 12.2 | 0.00 | 0.00 | 0.00 | 49 | 1009.3 |
| 20260506011835 | 58 | 288 | 9.6 | 12.2 | 0.00 | 0.00 | 0.00 | 48 | 1009.4 |
| 20260506010935 | 59 | 291 | 10.4 | 14.8 | 0.00 | 0.00 | 0.00 | 47 | 1009.3 |
| 20260506010035 | 59 | 284 | 10.4 | 13.9 | 0.00 | 0.00 | 0.00 | 47 | 1009.4 |
| 20260506005135 | 59 | 283 | 10.4 | 14.8 | 0.00 | 0.00 | 0.00 | 47 | 1009.4 |
| 20260506004235 | 59 | 286 | 11.3 | 15.6 | 0.00 | 0.00 | 0.00 | 47 | 1009.3 |
| 20260506003335 | 59 | 289 | 9.6 | 13.0 | 0.00 | 0.00 | 0.00 | 47 | 1009.2 |
| 20260506002440 | 59 | 288 | 9.6 | 13.0 | 0.00 | 0.00 | 0.00 | 49 | 1009.3 |
| 20260506001535 | 59 | 285 | 9.6 | 14.8 | 0.00 | 0.00 | 0.00 | 50 | 1009.2 |
| 20260506000635 | 59 | 295 | 13.0 | 17.4 | 0.00 | 0.00 | 0.00 | 49 | 1009.1 |
| 20260505235735 | 60 | 304 | 15.6 | 20.0 | 0.00 | 0.00 | 0.00 | 48 | 1009.0 |
| 20260505235047 | 60 | 294 | 14.8 | 20.0 | 0.00 | 0.00 | 0.00 | 48 | 1009.1 |
| 20260505233935 | 60 | 293 | 15.6 | 21.7 | 0.00 | 0.00 | 0.00 | 50 | 1008.9 |
| 20260505233035 | 60 | 294 | 13.0 | 19.1 | 0.00 | 0.00 | 0.00 | 49 | 1008.8 |
| 20260505232135 | 60 | 303 | 14.8 | 20.9 | 0.00 | 0.00 | 0.00 | 50 | 1008.9 |
| 20260505231235 | 60 | 306 | 15.6 | 20.9 | 0.00 | 0.00 | 0.00 | 53 | 1008.8 |
| 20260505230335 | 60 | 300 | 17.4 | 22.6 | 0.00 | 0.00 | 0.00 | 49 | 1008.9 |
| 20260505225435 | 60 | 310 | 17.4 | 23.5 | 0.00 | 0.00 | 0.00 | 51 | 1008.9 |
| 20260505224535 | 60 | 307 | 18.2 | 25.2 | 0.00 | 0.00 | 0.00 | 52 | 1009.2 |
| 20260505223635 | 60 | 306 | 21.7 | 26.9 | 0.00 | 0.00 | 0.00 | 51 | 1009.5 |
| 20260505222735 | 61 | 305 | 19.1 | 26.9 | 0.00 | 0.00 | 0.00 | 46 | 1009.5 |
| 20260505221835 | 62 | 294 | 13.9 | 22.6 | 0.00 | 0.00 | 0.00 | 47 | 1009.0 |
| 20260505220935 | 62 | 298 | 13.0 | 18.2 | 0.00 | 0.00 | 0.00 | 46 | 1009.1 |
| 20260505220035 | 62 | 323 | 13.0 | 18.2 | 0.00 | 0.00 | 0.00 | 43 | 1009.0 |
| 20260505215135 | 63 | 324 | 14.8 | 20.0 | 0.00 | 0.00 | 0.00 | 43 | 1009.0 |
| 20260505214235 | 62 | 327 | 17.4 | 24.3 | 0.00 | 0.00 | 0.00 | 44 | 1009.1 |
| 20260505213335 | 62 | 320 | 20.9 | 27.8 | 0.00 | 0.00 | 0.00 | 43 | 1009.3 |
| 20260505212435 | 64 | 299 | 19.1 | 24.3 | 0.00 | 0.00 | 0.00 | 39 | 1009.6 |
| 20260505211535 | 61 | 290 | 21.7 | 29.5 | 0.00 | 0.00 | 0.00 | 41 | 1009.5 |
| 20260505210635 | 60 | 278 | 20.0 | 29.5 | 0.00 | 0.00 | 0.00 | 43 | 1010.0 |
| 20260505205735 | 62 | 291 | 18.2 | 25.2 | 0.00 | 0.00 | 0.00 | 41 | 1009.7 |
| 20260505204835 | 62 | 276 | 12.2 | 18.2 | 0.00 | 0.00 | 0.00 | 50 | 1009.8 |
| 20260505203935 | 62 | 279 | 13.0 | 18.2 | 0.00 | 0.00 | 0.00 | 50 | 1009.9 |
| 20260505203035 | 62 | 288 | 15.6 | 22.6 | 0.00 | 0.00 | 0.00 | 50 | 1009.9 |
| 20260505202135 | 63 | 289 | 14.8 | 22.6 | 0.00 | 0.00 | 0.00 | 50 | 1009.7 |
| 20260505201235 | 61 | 252 | 14.8 | 26.9 | 0.00 | 0.00 | 0.00 | 48 | 1009.9 |
| 20260505200335 | 62 | 242 | 16.5 | 26.9 | 0.00 | 0.00 | 0.00 | 44 | 1010.0 |
| 20260505195647 | 63 | 221 | 17.4 | 26.1 | 0.00 | 0.00 | 0.00 | 44 | 1010.0 |
| 20260505194535 | 63 | 222 | 17.4 | 26.9 | 0.00 | 0.00 | 0.00 | 45 | 1010.2 |
| 20260505193635 | 61 | 219 | 17.4 | 24.3 | 0.00 | 0.00 | 0.00 | 49 | 1010.2 |
| 20260505192735 | 63 | 216 | 18.2 | 23.5 | 0.00 | 0.00 | 0.00 | 47 | 1010.4 |
| 20260505192047 | 62 | 213 | 17.4 | 25.2 | 0.00 | 0.00 | 0.00 | 49 | 1010.4 |
| 20260505191149 | 62 | 227 | 18.2 | 25.2 | 0.00 | 0.00 | 0.00 | 51 | 1010.5 |
| 20260505190035 | 60 | 220 | 18.2 | 26.9 | 0.00 | 0.00 | 0.00 | 52 | 1010.8 |
| 20260505185135 | 60 | 217 | 20.0 | 28.7 | 0.00 | 0.00 | 0.00 | 52 | 1010.8 |
| 20260505184235 | 61 | 214 | 19.1 | 27.8 | 0.00 | 0.00 | 0.00 | 53 | 1010.8 |
| 20260505183335 | 61 | 221 | 18.2 | 26.9 | 0.00 | 0.00 | 0.00 | 53 | 1010.9 |
| 20260505182435 | 60 | 218 | 13.9 | 22.6 | 0.00 | 0.00 | 0.00 | 56 | 1011.1 |
| 20260505181535 | 58 | 217 | 13.9 | 20.9 | 0.00 | 0.00 | 0.00 | 59 | 1011.2 |
| 20260505180635 | 58 | 208 | 12.2 | 20.0 | 0.00 | 0.00 | 0.00 | 61 | 1011.4 |
| 20260505175735 | 57 | 210 | 11.3 | 17.4 | 0.00 | 0.00 | 0.00 | 63 | 1011.5 |
| 20260505175045 | 56 | 222 | 10.4 | 16.5 | 0.00 | 0.00 | 0.00 | 64 | 1011.7 |
| 20260505173935 | 55 | 236 | 8.7 | 13.0 | 0.00 | 0.00 | 0.00 | 62 | 1011.9 |
| 20260505173035 | 54 | 220 | 7.8 | 10.4 | 0.00 | 0.00 | 0.00 | 66 | 1011.7 |
| 20260505172135 | 54 | 214 | 7.8 | 11.3 | 0.00 | 0.00 | 0.00 | 67 | 1011.8 |
| 20260505171235 | 54 | 219 | 7.8 | 13.0 | 0.00 | 0.00 | 0.00 | 69 | 1012.1 |
| 20260505170335 | 53 | 218 | 7.8 | 11.3 | 0.00 | 0.00 | 0.00 | 74 | 1012.0 |
| 20260505165435 | 53 | 222 | 7.0 | 9.6 | 0.00 | 0.00 | 0.00 | 76 | 1012.1 |
| 20260505164535 | 52 | 218 | 8.7 | 11.3 | 0.00 | 0.00 | 0.00 | 78 | 1012.0 |
| 20260505163635 | 52 | 222 | 9.6 | 13.0 | 0.00 | 0.00 | 0.00 | 77 | 1012.1 |
| 20260505162735 | 52 | 244 | 6.1 | 13.0 | 0.00 | 0.00 | 0.00 | 76 | 1012.4 |
| 20260505161835 | 52 | 287 | 5.2 | 7.0 | 0.00 | 0.00 | 0.00 | 73 | 1012.3 |
| 20260505160935 | 52 | 292 | 6.1 | 8.7 | 0.00 | 0.00 | 0.00 | 71 | 1012.3 |
| 20260505153335 | 53 | 291 | 7.8 | 11.3 | 0.00 | 0.00 | 0.00 | 66 | 1011.9 |
| 20260505152648 | 53 | 286 | 8.7 | 13.0 | 0.00 | 0.00 | 0.00 | 64 | 1011.9 |
| 20260505151535 | 54 | 289 | 9.6 | 12.2 | 0.00 | 0.00 | 0.00 | 60 | 1012.2 |